Time,TemperatureF,DewpointF,PressureIn,WindDirection,WindDirectionDegrees,WindSpeedMPH,WindSpeedGustMPH,Humidity,HourlyPrecipIn,Conditions,Clouds,dailyrainin,SolarRadiationWatts/m^2,SoftwareType,DateUTC
2013-04-13 00:03:00,40.0,38.0,-100.00,NNE,19,13.0,25.0,92,0.00,,,0.81,1.000000,,2013-04-13 04:03:00,
2013-04-13 00:12:00,40.0,38.0,-100.00,NNE,19,13.0,25.0,92,0.00,,,0.81,1.000000,,2013-04-13 04:12:00,
2013-04-13 00:23:00,40.0,38.0,-100.00,NNE,19,13.0,25.0,92,0.00,,,0.81,1.000000,,2013-04-13 04:23:00,
2013-04-13 00:53:00,41.0,38.0,-100.00,NNE,22,15.0,25.0,90,0.00,,,0.81,1.000000,,2013-04-13 04:53:00,
2013-04-13 01:03:00,41.0,38.0,-100.00,NNE,22,15.0,25.0,90,0.00,,,0.81,1.000000,,2013-04-13 05:03:00,
2013-04-13 01:12:00,41.0,38.0,-100.00,NNE,22,15.0,25.0,90,0.00,,,0.81,1.000000,,2013-04-13 05:12:00,
2013-04-13 01:22:00,41.0,38.0,-100.00,NNE,22,15.0,25.0,90,0.00,,,0.81,1.000000,,2013-04-13 05:22:00,
2013-04-13 01:53:00,41.0,38.0,-100.00,NNE,15,14.0,27.0,88,0.00,,,0.81,1.000000,,2013-04-13 05:53:00,
2013-04-13 02:02:00,41.0,38.0,-100.00,NNE,15,14.0,27.0,88,0.00,,,0.81,1.000000,,2013-04-13 06:02:00,
2013-04-13 02:12:00,41.0,38.0,-100.00,NNE,15,14.0,27.0,88,0.00,,,0.81,1.000000,,2013-04-13 06:12:00,
2013-04-13 02:24:00,41.0,38.0,-100.00,NNE,15,14.0,27.0,88,0.00,,,0.81,1.000000,,2013-04-13 06:24:00,
2013-04-13 02:56:00,40.0,37.0,-100.00,North,0,11.0,25.0,88,0.00,,,0.81,0.000000,,2013-04-13 06:56:00,
2013-04-13 03:08:00,40.0,37.0,-100.00,North,0,11.0,25.0,88,0.00,,,0.81,0.000000,,2013-04-13 07:08:00,
2013-04-13 03:15:00,40.0,37.0,-100.00,North,0,11.0,25.0,88,0.00,,,0.81,0.000000,,2013-04-13 07:15:00,
2013-04-13 03:24:00,40.0,37.0,-100.00,North,0,11.0,25.0,88,0.00,,,0.81,0.000000,,2013-04-13 07:24:00,
2013-04-13 03:25:00,40.0,37.0,-100.00,NNE,32,14.0,24.0,89,0.01,,,0.82,1.000000,,2013-04-13 07:25:00,
2013-04-13 03:58:00,40.0,37.0,-100.00,NNE,32,14.0,24.0,89,0.01,,,0.82,1.000000,,2013-04-13 07:58:00,
2013-04-13 04:16:00,40.0,37.0,-100.00,NNE,32,14.0,24.0,89,0.01,,,0.82,1.000000,,2013-04-13 08:16:00,
2013-04-13 04:25:00,40.0,37.0,-100.00,North,349,9.0,25.0,88,0.00,,,0.82,1.000000,,2013-04-13 08:25:00,
2013-04-13 04:55:00,40.0,37.0,-100.00,North,349,9.0,25.0,88,0.00,,,0.82,1.000000,,2013-04-13 08:55:00,
2013-04-13 05:06:00,40.0,37.0,-100.00,North,349,9.0,25.0,88,0.00,,,0.82,1.000000,,2013-04-13 09:06:00,
2013-04-13 05:15:00,40.0,37.0,-100.00,North,349,9.0,25.0,88,0.00,,,0.82,1.000000,,2013-04-13 09:15:00,
2013-04-13 05:25:00,39.0,35.0,-100.00,North,354,8.0,24.0,85,0.00,,,0.82,1.000000,,2013-04-13 09:25:00,
2013-04-13 05:57:00,39.0,35.0,-100.00,North,354,8.0,24.0,85,0.00,,,0.82,1.000000,,2013-04-13 09:57:00,
2013-04-13 06:05:00,39.0,35.0,-100.00,North,354,8.0,24.0,85,0.00,,,0.82,1.000000,,2013-04-13 10:05:00,
2013-04-13 06:16:00,39.0,35.0,-100.00,North,354,8.0,24.0,85,0.00,,,0.82,1.000000,,2013-04-13 10:16:00,
2013-04-13 06:56:00,39.0,35.0,-100.00,North,6,10.0,18.0,84,0.00,,,0.82,1.000000,,2013-04-13 10:56:00,
2013-04-13 07:08:00,39.0,35.0,-100.00,North,6,10.0,18.0,84,0.00,,,0.82,1.000000,,2013-04-13 11:08:00,
2013-04-13 07:14:00,39.0,35.0,-100.00,North,6,10.0,18.0,84,0.00,,,0.82,1.000000,,2013-04-13 11:14:00,
2013-04-13 07:25:00,39.0,35.0,-100.00,North,8,9.0,15.0,85,0.00,,,0.82,16.000000,,2013-04-13 11:25:00,
2013-04-13 07:54:00,39.0,35.0,-100.00,North,8,9.0,15.0,85,0.00,,,0.82,16.000000,,2013-04-13 11:54:00,
2013-04-13 08:08:00,39.0,35.0,-100.00,North,8,9.0,15.0,85,0.00,,,0.82,16.000000,,2013-04-13 12:08:00,
2013-04-13 08:17:00,39.0,35.0,-100.00,North,8,9.0,15.0,85,0.00,,,0.82,16.000000,,2013-04-13 12:17:00,
2013-04-13 08:25:00,39.0,35.0,-100.00,North,355,10.0,18.0,84,0.00,,,0.82,50.000000,,2013-04-13 12:25:00,
2013-04-13 08:57:00,39.0,35.0,-100.00,North,355,10.0,18.0,84,0.00,,,0.82,50.000000,,2013-04-13 12:57:00,
2013-04-13 09:08:00,39.0,35.0,-100.00,North,355,10.0,18.0,84,0.00,,,0.82,50.000000,,2013-04-13 13:08:00,
2013-04-13 09:58:00,40.0,35.0,-100.00,NNW,348,8.0,13.0,82,0.00,,,0.82,143.000000,,2013-04-13 13:58:00,
2013-04-13 10:05:00,40.0,35.0,-100.00,NNW,348,8.0,13.0,82,0.00,,,0.82,143.000000,,2013-04-13 14:05:00,
2013-04-13 10:15:00,40.0,35.0,-100.00,NNW,348,8.0,13.0,82,0.00,,,0.82,143.000000,,2013-04-13 14:15:00,
2013-04-13 10:23:00,40.0,35.0,-100.00,NNW,348,8.0,13.0,82,0.00,,,0.82,143.000000,,2013-04-13 14:23:00,
2013-04-13 10:25:00,45.0,37.0,-100.00,North,7,2.0,12.0,74,0.00,,,0.81,321.000000,,2013-04-13 14:25:00,
2013-04-13 11:00:00,45.0,37.0,-100.00,North,7,2.0,12.0,74,0.00,,,0.81,321.000000,,2013-04-13 15:00:00,
2013-04-13 11:05:00,45.0,37.0,-100.00,North,7,2.0,12.0,74,0.00,,,0.81,321.000000,,2013-04-13 15:05:00,
2013-04-13 11:15:00,45.0,37.0,-100.00,North,7,2.0,12.0,74,0.00,,,0.81,321.000000,,2013-04-13 15:15:00,
2013-04-13 11:25:00,51.0,37.0,-100.00,NNW,327,6.0,15.0,59,0.00,,,0.81,780.000000,,2013-04-13 15:25:00,
2013-04-13 11:59:00,51.0,37.0,-100.00,NNW,327,6.0,15.0,59,0.00,,,0.81,780.000000,,2013-04-13 15:59:00,
2013-04-13 12:08:00,51.0,37.0,-100.00,NNW,327,6.0,15.0,59,0.00,,,0.81,780.000000,,2013-04-13 16:08:00,
2013-04-13 12:16:00,51.0,37.0,-100.00,NNW,327,6.0,15.0,59,0.00,,,0.81,780.000000,,2013-04-13 16:16:00,
2013-04-13 12:25:00,48.0,39.0,-100.00,South,186,10.0,19.0,71,0.00,,,0.67,814.000000,,2013-04-13 16:25:00,
2013-04-13 12:59:00,48.0,39.0,-100.00,South,186,10.0,19.0,71,0.00,,,0.67,814.000000,,2013-04-13 16:59:00,
2013-04-13 13:08:00,48.0,39.0,-100.00,South,186,10.0,19.0,71,0.00,,,0.67,814.000000,,2013-04-13 17:08:00,
2013-04-13 13:22:00,48.0,39.0,-100.00,South,186,10.0,19.0,71,0.00,,,0.67,814.000000,,2013-04-13 17:22:00,
2013-04-13 13:25:00,48.0,40.0,-100.00,SW,218,8.0,18.0,75,0.00,,,0.56,840.000000,,2013-04-13 17:25:00,
2013-04-13 14:04:00,48.0,40.0,-100.00,SW,218,8.0,18.0,75,0.00,,,0.56,840.000000,,2013-04-13 18:04:00,
2013-04-13 14:16:00,48.0,40.0,-100.00,SW,218,8.0,18.0,75,0.00,,,0.56,840.000000,,2013-04-13 18:16:00,
2013-04-13 14:53:00,52.0,40.0,-100.00,SW,231,10.0,21.0,63,0.00,,,0.48,835.000000,,2013-04-13 18:53:00,
2013-04-13 15:03:00,52.0,40.0,-100.00,SW,231,10.0,21.0,63,0.00,,,0.48,835.000000,,2013-04-13 19:03:00,
2013-04-13 15:12:00,52.0,40.0,-100.00,SW,231,10.0,21.0,63,0.00,,,0.48,835.000000,,2013-04-13 19:12:00,
2013-04-13 15:22:00,52.0,40.0,-100.00,SW,231,10.0,21.0,63,0.00,,,0.48,835.000000,,2013-04-13 19:22:00,
2013-04-13 15:53:00,50.0,39.0,-100.00,SW,236,9.0,18.0,66,0.00,,,0.43,526.000000,,2013-04-13 19:53:00,
2013-04-13 16:02:00,50.0,39.0,-100.00,SW,236,9.0,18.0,66,0.00,,,0.43,526.000000,,2013-04-13 20:02:00,
2013-04-13 16:12:00,50.0,39.0,-100.00,SW,236,9.0,18.0,66,0.00,,,0.43,526.000000,,2013-04-13 20:12:00,
2013-04-13 16:22:00,50.0,39.0,-100.00,SW,236,9.0,18.0,66,0.00,,,0.43,526.000000,,2013-04-13 20:22:00,
2013-04-13 16:53:00,53.0,37.0,-100.00,SW,230,10.0,18.0,55,0.00,,,0.37,520.000000,,2013-04-13 20:53:00,
2013-04-13 17:02:00,53.0,37.0,-100.00,SW,230,10.0,18.0,55,0.00,,,0.37,520.000000,,2013-04-13 21:02:00,
2013-04-13 17:12:00,53.0,37.0,-100.00,SW,230,10.0,18.0,55,0.00,,,0.37,520.000000,,2013-04-13 21:12:00,
2013-04-13 17:22:00,53.0,37.0,-100.00,SW,230,10.0,18.0,55,0.00,,,0.37,520.000000,,2013-04-13 21:22:00,
2013-04-13 17:53:00,52.0,37.0,-100.00,SW,231,9.0,19.0,57,0.00,,,0.30,499.000000,,2013-04-13 21:53:00,
2013-04-13 18:03:00,52.0,37.0,-100.00,SW,231,9.0,19.0,57,0.00,,,0.30,499.000000,,2013-04-13 22:03:00,
2013-04-13 18:13:00,52.0,37.0,-100.00,SW,231,9.0,19.0,57,0.00,,,0.30,499.000000,,2013-04-13 22:13:00,
2013-04-13 18:23:00,52.0,37.0,-100.00,SW,231,9.0,19.0,57,0.00,,,0.30,499.000000,,2013-04-13 22:23:00,
2013-04-13 18:53:00,51.0,34.0,-100.00,WSW,250,8.0,19.0,51,0.00,,,0.07,254.000000,,2013-04-13 22:53:00,
2013-04-13 19:02:00,51.0,34.0,-100.00,WSW,250,8.0,19.0,51,0.00,,,0.07,254.000000,,2013-04-13 23:02:00,
2013-04-13 19:12:00,51.0,34.0,-100.00,WSW,250,8.0,19.0,51,0.00,,,0.07,254.000000,,2013-04-13 23:12:00,
2013-04-13 19:22:00,51.0,34.0,-100.00,WSW,250,8.0,19.0,51,0.00,,,0.07,254.000000,,2013-04-13 23:22:00,
2013-04-13 19:53:00,48.0,32.0,-100.00,WSW,243,4.0,14.0,54,0.00,,,0.03,30.000000,,2013-04-13 23:53:00,
2013-04-13 20:03:00,48.0,32.0,-100.00,WSW,243,4.0,14.0,54,0.00,,,0.03,30.000000,,2013-04-14 00:03:00,
2013-04-13 20:12:00,48.0,32.0,-100.00,WSW,243,4.0,14.0,54,0.00,,,0.03,30.000000,,2013-04-14 00:12:00,
2013-04-13 20:22:00,48.0,32.0,-100.00,WSW,243,4.0,14.0,54,0.00,,,0.03,30.000000,,2013-04-14 00:22:00,
2013-04-13 20:52:00,45.0,33.0,-100.00,West,266,1.0,6.0,62,0.00,,,0.02,1.000000,,2013-04-14 00:52:00,
2013-04-13 21:02:00,45.0,33.0,-100.00,West,266,1.0,6.0,62,0.00,,,0.02,1.000000,,2013-04-14 01:02:00,
2013-04-13 21:12:00,45.0,33.0,-100.00,West,266,1.0,6.0,62,0.00,,,0.02,1.000000,,2013-04-14 01:12:00,
2013-04-13 21:22:00,45.0,33.0,-100.00,West,266,1.0,6.0,62,0.00,,,0.02,1.000000,,2013-04-14 01:22:00,
2013-04-13 21:53:00,46.0,36.0,-100.00,WSW,247,4.0,8.0,68,0.00,,,0.02,0.000000,,2013-04-14 01:53:00,
2013-04-13 22:03:00,46.0,36.0,-100.00,WSW,247,4.0,8.0,68,0.00,,,0.02,0.000000,,2013-04-14 02:03:00,
2013-04-13 22:12:00,46.0,36.0,-100.00,WSW,247,4.0,8.0,68,0.00,,,0.02,0.000000,,2013-04-14 02:12:00,
2013-04-13 22:22:00,46.0,36.0,-100.00,WSW,247,4.0,8.0,68,0.00,,,0.02,0.000000,,2013-04-14 02:22:00,
2013-04-13 22:53:00,41.0,36.0,-100.00,WSW,245,3.0,7.0,82,0.00,,,0.01,1.000000,,2013-04-14 02:53:00,
2013-04-13 23:03:00,41.0,36.0,-100.00,WSW,245,3.0,7.0,82,0.00,,,0.01,1.000000,,2013-04-14 03:03:00,
2013-04-13 23:12:00,41.0,36.0,-100.00,WSW,245,3.0,7.0,82,0.00,,,0.01,1.000000,,2013-04-14 03:12:00,
2013-04-13 23:22:00,41.0,36.0,-100.00,WSW,245,3.0,7.0,82,0.00,,,0.01,1.000000,,2013-04-14 03:22:00,
2013-04-13 23:53:00,43.0,39.0,-100.00,SW,235,4.0,9.0,86,0.00,,,0.01,1.000000,,2013-04-14 03:53:00,